Location: Newark
(38.0892°N, 27.7378°E)
Time: 14:41:43
(UTC+00:00)

Envisat - Visible Passes

Search period start: 20 January 2021 00:00
Search period end: 30 January 2021 00:00
Orbit: 764 x 766 km, 98.1° (Epoch: 20 January)

Date Brightness Start Highest point End Pass type
(mag) Time Alt. Az. Time Alt. Az. Time Alt. Az.
20 Jan 5.8 02:45:46 10° NE 02:49:00 17° E 02:52:13 10° SE visible
20 Jan 3.1 04:23:22 10° N 04:28:16 51° WNW 04:33:10 10° SSW visible
21 Jan 3.3 03:46:27 10° NNE 03:51:32 70° ESE 03:56:35 10° S visible
21 Jan 6.5 16:42:39 10° WSW 16:43:44 11° W 16:44:50 10° WNW visible
22 Jan 4.9 03:10:09 10° NE 03:14:36 30° E 03:19:01 10° SSE visible
22 Jan 3.8 04:49:10 10° N 04:53:31 29° WNW 04:57:51 10° SW visible
22 Jan 5.5 16:02:23 10° SSW 16:06:34 26° W 16:10:46 10° NW visible
23 Jan 6.1 02:35:14 10° ENE 02:37:28 13° E 02:39:43 10° ESE visible
23 Jan 2.9 04:11:52 10° N 04:16:55 66° WNW 04:21:55 10° SSW visible
24 Jan 3.7 03:35:07 10° NNE 03:40:07 54° E 03:45:04 10° S visible
24 Jan 6.2 16:29:33 10° WSW 16:32:12 14° W 16:34:52 10° WNW visible
25 Jan 5.3 02:59:04 10° NE 03:03:07 23° E 03:07:08 10° SSE visible
25 Jan 3.5 04:37:33 10° N 04:42:11 37° WNW 04:46:48 10° SW visible
25 Jan 5.1 15:50:33 10° SSW 15:55:05 33° W 15:59:39 10° NNW visible
26 Jan 2.9 04:00:25 10° N 04:05:31 84° WNW 04:10:36 10° SSW visible
27 Jan 4.3 03:23:51 10° NNE 03:28:40 42° E 03:33:27 10° S visible
27 Jan 6.0 16:17:13 10° SW 16:20:41 18° W 16:24:10 10° NW visible
28 Jan 5.7 02:48:08 10° NE 02:51:37 18° E 02:55:04 10° SE visible
28 Jan 3.2 04:25:59 10° N 04:30:51 47° WNW 04:35:41 10° SW visible
29 Jan 3.2 03:49:01 10° NNE 03:54:07 77° ESE 03:59:12 10° S visible
